When you browse on this site, cookies collect data to enhance your experience and personalize the content and advertising you see.
Visit our Privacy Policy to learn more. By continuing to use the site, you agree to this use of cookies and data.
  • en Suisse
  • Liste des pays
  • À 7 jours
  • Température de l'eau
  • Carte météo
  • Widgets météo
  • user-avatar
    Se connecter

    Météo par heure à Mahdia

    Ce jour, 23 Octobre, Mercredi

    Heure Température Précipitation Vent Pression Humidité
    00:00 +24°C° 0 mm 9 m/s 762 mmHg 76%
    01:00 +24°C° 0 mm 9 m/s 762 mmHg 77%
    02:00 +24°C° 0 mm 9 m/s 762 mmHg 78%
    03:00 +24°C° 0 mm 8 m/s 762 mmHg 80%
    04:00 +24°C° 0 mm 8 m/s 761 mmHg 81%
    05:00 +24°C° 0 mm 8 m/s 761 mmHg 80%
    06:00 +24°C° 0 mm 9 m/s 761 mmHg 79%
    07:00 +24°C° 0 mm 9 m/s 761 mmHg 78%
    08:00 +26°C° 0 mm 10 m/s 761 mmHg 73%
    09:00 +27°C° 0 mm 10 m/s 761 mmHg 68%
    10:00 +28°C° 0 mm 11 m/s 762 mmHg 63%
    11:00 +28°C° 0 mm 11 m/s 761 mmHg 61%
    12:00 +28°C° 0 mm 11 m/s 761 mmHg 60%
    13:00 +29°C° 0 mm 11 m/s 760 mmHg 58%
    14:00 +28°C° 0 mm 11 m/s 760 mmHg 59%
    15:00 +28°C° 0 mm 11 m/s 760 mmHg 59%
    16:00 +28°C° 0 mm 11 m/s 759 mmHg 60%
    17:00 +27°C° 0 mm 11 m/s 759 mmHg 63%
    18:00 +27°C° 0 mm 11 m/s 759 mmHg 65%
    19:00 +26°C° 0 mm 11 m/s 759 mmHg 68%
    20:00 +26°C° 0 mm 10 m/s 759 mmHg 69%
    21:00 +26°C° 0 mm 10 m/s 759 mmHg 69%
    22:00 +26°C° 0 mm 9 m/s 760 mmHg 70%
    23:00 +26°C° 0 mm 10 m/s 760 mmHg 71%

    Demain, 24 Octobre, Jeudi

    Heure Température Précipitation Vent Pression Humidité
    00:00 +26°C° 0 mm 10 m/s 759 mmHg 71%
    01:00 +26°C° 0 mm 10 m/s 759 mmHg 71%
    02:00 +26°C° 0 mm 10 m/s 759 mmHg 70%
    03:00 +26°C° 0 mm 10 m/s 759 mmHg 70%
    04:00 +26°C° 0 mm 9 m/s 759 mmHg 69%
    05:00 +26°C° 0 mm 9 m/s 758 mmHg 68%
    06:00 +26°C° 0 mm 9 m/s 758 mmHg 67%
    07:00 +26°C° 0 mm 8 m/s 758 mmHg 66%
    08:00 +27°C° 0 mm 8 m/s 758 mmHg 60%
    09:00 +28°C° 0 mm 8 m/s 759 mmHg 55%
    10:00 +29°C° 0 mm 8 m/s 759 mmHg 50%
    11:00 +31°C° 0.2 mm 8 m/s 759 mmHg 44%
    12:00 +32°C° 0.2 mm 7 m/s 758 mmHg 38%
    13:00 +33°C° 0.2 mm 6 m/s 758 mmHg 32%
    14:00 +31°C° 0 mm 8 m/s 758 mmHg 43%
    15:00 +27°C° 0 mm 9 m/s 758 mmHg 54%
    16:00 +24°C° 0 mm 11 m/s 758 mmHg 65%
    17:00 +24°C° 0 mm 11 m/s 758 mmHg 66%
    18:00 +23°C° 0 mm 11 m/s 759 mmHg 68%
    19:00 +22°C° 0 mm 11 m/s 759 mmHg 69%
    20:00 +22°C° 0 mm 11 m/s 760 mmHg 67%
    21:00 +22°C° 0 mm 11 m/s 760 mmHg 64%
    22:00 +22°C° 0 mm 10 m/s 761 mmHg 61%
    23:00 +22°C° 0 mm 9 m/s 761 mmHg 60%

    Après-demain, 25 Octobre, Vendredi

    Heure Température Précipitation Vent Pression Humidité
    00:00 +21°C° 0 mm 9 m/s 761 mmHg 58%
    01:00 +21°C° 0 mm 8 m/s 761 mmHg 56%
    02:00 +20°C° 0 mm 8 m/s 761 mmHg 58%
    03:00 +20°C° 0 mm 8 m/s 761 mmHg 59%
    04:00 +18°C° 0 mm 8 m/s 761 mmHg 60%
    05:00 +18°C° 0 mm 8 m/s 761 mmHg 61%
    06:00 +18°C° 0 mm 7 m/s 761 mmHg 62%
    07:00 +17°C° 0 mm 7 m/s 761 mmHg 63%
    08:00 +20°C° 0 mm 7 m/s 761 mmHg 58%
    09:00 +21°C° 0 mm 7 m/s 762 mmHg 54%
    10:00 +22°C° 0 mm 7 m/s 762 mmHg 49%
    11:00 +23°C° 0 mm 7 m/s 762 mmHg 46%
    12:00 +24°C° 0 mm 6 m/s 761 mmHg 43%
    13:00 +26°C° 0 mm 6 m/s 761 mmHg 40%
    14:00 +26°C° 0 mm 5 m/s 761 mmHg 40%
    15:00 +26°C° 0 mm 4 m/s 761 mmHg 41%
    16:00 +25°C° 0 mm 4 m/s 761 mmHg 41%
    17:00 +25°C° 0 mm 4 m/s 761 mmHg 43%
    18:00 +23°C° 0 mm 4 m/s 761 mmHg 45%
    19:00 +23°C° 0 mm 5 m/s 762 mmHg 47%
    20:00 +22°C° 0 mm 5 m/s 762 mmHg 50%
    21:00 +21°C° 0 mm 5 m/s 762 mmHg 53%
    22:00 +20°C° 0 mm 5 m/s 763 mmHg 56%
    23:00 +20°C° 0 mm 5 m/s 763 mmHg 58%

    26 Octobre, Samedi

    Heure Température Précipitation Vent Pression Humidité
    00:00 +19°C° 0 mm 5 m/s 762 mmHg 59%
    01:00 +19°C° 0 mm 4 m/s 762 mmHg 61%
    02:00 +19°C° 0 mm 4 m/s 762 mmHg 61%
    03:00 +19°C° 0 mm 4 m/s 762 mmHg 61%
    04:00 +19°C° 0 mm 4 m/s 761 mmHg 61%
    05:00 +19°C° 0.1 mm 4 m/s 762 mmHg 63%
    06:00 +19°C° 0.1 mm 4 m/s 762 mmHg 64%
    07:00 +19°C° 0.1 mm 5 m/s 762 mmHg 65%
    08:00 +19°C° 0 mm 4 m/s 762 mmHg 63%
    09:00 +20°C° 0 mm 4 m/s 762 mmHg 61%
    10:00 +21°C° 0 mm 4 m/s 762 mmHg 59%
    11:00 +21°C° 0 mm 4 m/s 762 mmHg 58%
    12:00 +21°C° 0 mm 3 m/s 762 mmHg 57%
    13:00 +21°C° 0 mm 3 m/s 762 mmHg 56%
    14:00 +21°C° 0 mm 2 m/s 762 mmHg 55%
    15:00 +21°C° 0 mm 2 m/s 761 mmHg 54%
    16:00 +23°C° 0 mm 1 m/s 761 mmHg 52%
    17:00 +23°C° 0 mm 2 m/s 761 mmHg 53%
    18:00 +21°C° 0 mm 2 m/s 762 mmHg 54%
    19:00 +21°C° 0 mm 2 m/s 762 mmHg 55%
    20:00 +21°C° 0.2 mm 2 m/s 762 mmHg 55%
    21:00 +21°C° 0.2 mm 3 m/s 762 mmHg 56%
    22:00 +21°C° 0.2 mm 3 m/s 762 mmHg 57%
    23:00 +21°C° 0.3 mm 3 m/s 762 mmHg 58%

    27 Octobre, Dimanche

    Heure Température Précipitation Vent Pression Humidité
    00:00 +20°C° 0.3 mm 3 m/s 762 mmHg 59%
    01:00 +20°C° 0.3 mm 3 m/s 762 mmHg 61%
    02:00 +20°C° 0.3 mm 3 m/s 762 mmHg 62%
    03:00 +20°C° 0.3 mm 3 m/s 762 mmHg 63%
    04:00 +19°C° 0.3 mm 3 m/s 762 mmHg 64%
    05:00 +19°C° 0.1 mm 3 m/s 762 mmHg 65%
    06:00 +19°C° 0.1 mm 2 m/s 762 mmHg 66%
    07:00 +19°C° 0.1 mm 2 m/s 762 mmHg 68%
    08:00 +20°C° 0.1 mm 3 m/s 762 mmHg 63%
    09:00 +21°C° 0.1 mm 3 m/s 763 mmHg 59%
    10:00 +22°C° 0.1 mm 3 m/s 763 mmHg 54%
    11:00 +22°C° 0.4 mm 4 m/s 763 mmHg 58%
    12:00 +22°C° 0.4 mm 5 m/s 763 mmHg 61%
    13:00 +22°C° 0.4 mm 6 m/s 762 mmHg 65%
    14:00 +22°C° 0.1 mm 5 m/s 762 mmHg 63%
    15:00 +22°C° 0.1 mm 4 m/s 762 mmHg 62%
    16:00 +22°C° 0.1 mm 3 m/s 762 mmHg 60%
    17:00 +21°C° 0.2 mm 2 m/s 762 mmHg 62%
    18:00 +21°C° 0.2 mm 2 m/s 762 mmHg 64%
    19:00 +21°C° 0.2 mm 2 m/s 762 mmHg 66%
    20:00 +20°C° 0 mm 2 m/s 763 mmHg 66%
    21:00 +20°C° 0 mm 3 m/s 763 mmHg 67%
    22:00 +20°C° 0 mm 3 m/s 763 mmHg 67%
    23:00 +20°C° 0 mm 3 m/s 763 mmHg 68%

    28 Octobre, Lundi

    Heure Température Précipitation Vent Pression Humidité
    00:00 +20°C° 0 mm 3 m/s 763 mmHg 69%
    01:00 +20°C° 0 mm 3 m/s 763 mmHg 69%
    02:00 +20°C° 0.2 mm 3 m/s 763 mmHg 70%
    03:00 +20°C° 0.2 mm 4 m/s 762 mmHg 70%
    04:00 +20°C° 0.2 mm 4 m/s 762 mmHg 71%
    05:00 +20°C° 0.8 mm 5 m/s 762 mmHg 72%
    06:00 +20°C° 0.8 mm 5 m/s 762 mmHg 73%
    07:00 +20°C° 0.8 mm 5 m/s 762 mmHg 74%
    08:00 +21°C° 0.3 mm 5 m/s 763 mmHg 70%
    09:00 +22°C° 0.3 mm 5 m/s 763 mmHg 65%
    10:00 +24°C° 0.3 mm 6 m/s 763 mmHg 61%
    11:00 +24°C° 0.1 mm 6 m/s 763 mmHg 57%
    12:00 +26°C° 0.1 mm 5 m/s 762 mmHg 54%
    13:00 +26°C° 0.1 mm 5 m/s 762 mmHg 51%
    14:00 +26°C° 1.6 mm 6 m/s 762 mmHg 57%
    15:00 +24°C° 1.6 mm 7 m/s 761 mmHg 63%
    16:00 +24°C° 1.6 mm 7 m/s 761 mmHg 68%
    17:00 +23°C° 3.2 mm 8 m/s 761 mmHg 71%
    18:00 +23°C° 3.2 mm 8 m/s 762 mmHg 74%
    19:00 +23°C° 3.2 mm 8 m/s 762 mmHg 77%
    20:00 +23°C° 1.4 mm 8 m/s 762 mmHg 76%
    21:00 +23°C° 1.4 mm 8 m/s 762 mmHg 75%
    22:00 +23°C° 1.4 mm 8 m/s 762 mmHg 74%
    23:00 +23°C° 0.7 mm 7 m/s 762 mmHg 75%

    29 Octobre, Mardi

    Heure Température Précipitation Vent Pression Humidité
    00:00 +23°C° 0.7 mm 7 m/s 762 mmHg 76%
    01:00 +23°C° 0.7 mm 6 m/s 762 mmHg 77%
    02:00 +23°C° 0.4 mm 6 m/s 762 mmHg 78%
    03:00 +23°C° 0.4 mm 5 m/s 762 mmHg 78%
    04:00 +23°C° 0.4 mm 5 m/s 762 mmHg 79%
    05:00 +23°C° 0.4 mm 5 m/s 762 mmHg 79%
    06:00 +23°C° 0.4 mm 5 m/s 762 mmHg 78%
    07:00 +23°C° 0.4 mm 5 m/s 762 mmHg 78%
    08:00 +25°C° 0.1 mm 5 m/s 763 mmHg 69%
    09:00 +26°C° 0.1 mm 5 m/s 763 mmHg 61%
    10:00 +27°C° 0.1 mm 4 m/s 763 mmHg 53%
    11:00 +28°C° 0 mm 5 m/s 763 mmHg 52%
    12:00 +28°C° 0 mm 5 m/s 763 mmHg 50%
    13:00 +28°C° 0 mm 5 m/s 763 mmHg 48%
    14:00 +28°C° 0 mm 4 m/s 763 mmHg 49%
    15:00 +28°C° 0 mm 4 m/s 763 mmHg 50%
    16:00 +27°C° 0 mm 4 m/s 763 mmHg 51%
    17:00 +26°C° 0 mm 4 m/s 763 mmHg 56%
    18:00 +26°C° 0 mm 4 m/s 763 mmHg 61%
    19:00 +25°C° 0 mm 3 m/s 764 mmHg 66%
    20:00 +24°C° 0 mm 3 m/s 764 mmHg 66%
    21:00 +24°C° 0 mm 3 m/s 764 mmHg 67%
    22:00 +24°C° 0 mm 3 m/s 764 mmHg 67%
    23:00 +24°C° 0 mm 3 m/s 764 mmHg 68%
    Voir plus